Regional Weather Roundup
Issued by NWS Glasgow, MT

Home | Current Version | Previous Version | Text Only | Print | Product List | Glossary On
Versions: 1 2 3 4 5 6 7 8 9 10 11 12 13 14 15 16 17 18 19 20 21 22 23 24 25 26 27 28 29 30 31 32 33 34 35 36 37 38 39 40 41 42 43 44 45 46 47 48 49 50
621
ASUS45 KGGW 210615
RWRGGW
HOURLY REGIONAL WEATHER ROUNDUP FOR NORTHEAST MONTANA
NATIONAL WEATHER SERVICE GLASGOW MONTANA
1200 AM MDT SAT APR 21 2018

NOTE: "FAIR" INDICATES FEW OR NO CLOUDS BELOW 12,000 FEET WITH NO
SIGNIFICANT WEATHER AND/OR OBSTRUCTIONS TO VISISBILITY.

NORTHEAST MONTANA


CITY           SKY/WX    TMP DP  RH WIND       PRES   REMARKS
GLASGOW        CLEAR     48  37  65 E12       30.06S
6HR MIN TEMP:  47; 6HR MAX TEMP:  69;

PLENTYWOOD       N/A     43  32  65 SE6         N/A
WOLF POINT     CLEAR     49  35  58 E6        30.10R
JORDAN           N/A     49  37  63 E3        30.07S
WINNETT          N/A     40  35  83 S1          N/A
SIDNEY         CLEAR     45  38  76 S12       30.15R
GLENDIVE       CLEAR     43  38  82 S9        30.14S
MALTA            N/A     44  38  79 CALM        N/A

FORT PECK REPORTS


CITY           SKY/WX    TMP DP  RH WIND       PRES   REMARKS
FORT PECK        N/A     51  36  56 SE12        N/A
THE PINES        N/A     46  32  58 S3          N/A

SOUTHEAST MONTANA


CITY           SKY/WX    TMP DP  RH WIND       PRES   REMARKS
BILLINGS       CLEAR     51  35  54 CALM      30.09S
MILES CITY     CLEAR     46  40  79 SE13      30.09S
BAKER          CLEAR     38  37  97 S18       30.14F
LIVINGSTON     CLEAR     39  30  70 CALM      30.11R

CENTRAL MONTANA


CITY           SKY/WX    TMP DP  RH WIND       PRES   REMARKS
HAVRE          PTCLDY    46  32  58 CALM      30.04S
LEWISTOWN      CLEAR     42  32  67 E8        30.08F
GREAT FALLS    CLEAR     42  25  50 S12       30.06S
CUT BANK       PTCLDY    44  27  51 SW8       30.04F
HELENA         CLEAR     45  27  49 SW3       30.09S
BUTTE          CLEAR     35  26  69 SE7       30.15R
BOZEMAN        CLEAR     45  29  53 S10       30.10S

WESTERN MONTANA


CITY           SKY/WX    TMP DP  RH WIND       PRES   REMARKS
MISSOULA       CLEAR     44  30  57 N5        30.10S
KALISPELL      NOT AVBL

NORTH DAKOTA


CITY           SKY/WX    TMP DP  RH WIND       PRES   REMARKS
WILLISTON      CLEAR     46  37  71 SE6       30.15S
DICKINSON      CLEAR     38  35  89 S9        30.19S
MINOT          CLEAR     48  34  58 S21G30    30.18F
BISMARCK       CLEAR     36  33  89 SE5       30.28F

SOUTHERN SASKATCHEWAN


CITY           SKY/WX    TMP DP  RH WIND       PRES   REMARKS
REGINA         CLEAR     41  34  75 SE17      30.09F
ESTEVAN        PTCLDY    37  32  81 SE8       30.14F
SWIFT CURRENT  CLEAR     43  32  65 S12       30.03S





USA.gov is the U.S. government's official web portal to all federal, state and local government web resources and services.